Regional Weather Roundup
Issued by NWS

Home | Current Version | Previous Version | Graphics & Text | Print | Product List | Glossary On
Versions: 1 2 3 4 5 6 7 8 9 10 11 12 13 14 15 16 17 18 19 20 21 22 23 24 25 26 27 28 29 30 31 32 33 34 35 36 37 38 39 40 41 42 43 44 45 46 47 48 49 50
000
ASUS43 KBIS 231510
RWRND

NORTH DAKOTA REGIONAL WEATHER ROUNDUP
NATIONAL WEATHER SERVICE BISMARCK ND
1000 AM CDT FRI JUN 23 2017

NOTE: "FAIR" INDICATES FEW OR NO CLOUDS BELOW 12,000 FEET WITH NO
SIGNIFICANT WEATHER AND/OR OBSTRUCTIONS TO VISIBILITY.


NDZ001>003-009>011-017-231600-
NORTHWEST NORTH DAKOTA

CITY           SKY/WX    TMP DP  RH WIND       PRES   REMARKS
WILLISTON      SUNNY     57  39  51 NW23G30   30.14S
MINOT          PTSUNNY   57  39  51 NW21G29   30.02S
MINOT AFB      MOSUNNY   56  39  52 NW24G30   30.00F
$$

NDZ018>021-031>035-040>046-231600-
SOUTHWEST NORTH DAKOTA

CITY           SKY/WX    TMP DP  RH WIND       PRES   REMARKS
BISMARCK       CLOUDY    57  36  45 NW28G36   30.07R
DICKINSON      PTSUNNY   55  33  43 NW24G33   30.13R
GARRISON         N/A     53  37  54 NW25G35   30.06R
HETTINGER ARPT MOSUNNY   57  32  38 W28G36    30.16S
$$

NDZ004>008-012>016-024-026-027-054-231600-
NORTHEAST NORTH DAKOTA

CITY           SKY/WX    TMP DP  RH WIND       PRES   REMARKS
GRAND FORKS    CLOUDY    60  51  72 NW15G26   29.84R
GRND FRKS AFB  CLOUDY    59  49  69 N17G26    29.85R
DEVILS LAKE    CLOUDY    57  45  64 NW22G28   29.92R
$$

NDZ022-023-025-028>030-036>039-047>053-231600-
SOUTHEAST NORTH DAKOTA

CITY           SKY/WX    TMP DP  RH WIND       PRES   REMARKS
FARGO          CLOUDY    61  51  70 NW21      29.86R
JAMESTOWN      CLOUDY    57  45  64 NW24G31   29.94R
$$





USA.gov is the U.S. government's official web portal to all federal, state and local government web resources and services.